INDIA1 KJFK-VIDP

Flight info

Callsign INDIA1
Flight time N/A
Altitude 31000
Route JFK5 CRI DCT BETTE DCT ACK DCT KANNI N257B NICSO NATS MALOT DCT GISTI DCT BANBA N30 ADHAV P70 AGCAT Q63 ZIPWE L180 LEKCI P4 HAWFA L607 UNZIB L18 NUCHU L607 KONAN UL607 KOK M150 PITES DCT EDISA DCT UTABA L607 BEMKI T23 BIRGI DCT VEKEN DCT NEMEK DCT AKIKA T8 INLOT L604 TRN N141 DOBAR N137 BITLA UN132 KUMBI L612 BLT A16 CVO L315 HGD M872 EVANO J852 BDB Y214 RAPMA DCT KUVSO DCT KATIT DCT MIDGU M440 TULBU N881 RASKI L639 LAXOM J61 UUD A347 BUBNU
Aircraft B77W/H-SADE1E2E3FGHIJ2J3J4J5J6J7M1M3P1P2P3RUWXYZ/LB1D1

Departure

Time N/A
Airport John F. Kennedy International Airport (KJFK)

Arrival

Time 2026-04-27 09:46
Airport Indira Gandhi International Airport (VIDP)
Time Latitude Longitude Altitude Speed Heading
2026-04-27 03:00 40.09427 22.07699 35145 ft 516 kts 147°
2026-04-27 03:00 40.06480 22.10371 35144 ft 515 kts 146°
2026-04-27 03:01 40.00590 22.15702 35135 ft 515 kts 147°
2026-04-27 03:01 39.94685 22.21034 35140 ft 515 kts 147°
2026-04-27 03:02 39.88777 22.26357 35113 ft 516 kts 147°
2026-04-27 03:02 39.82866 22.31672 35132 ft 516 kts 147°
2026-04-27 03:03 39.74036 22.39599 35124 ft 516 kts 146°
2026-04-27 03:04 39.69079 22.44037 35120 ft 516 kts 146°
2026-04-27 03:04 39.63167 22.49313 35118 ft 516 kts 147°
2026-04-27 03:05 39.57243 22.54581 35117 ft 516 kts 147°
2026-04-27 03:05 39.51361 22.59808 35111 ft 516 kts 147°
2026-04-27 03:06 39.45444 22.65060 35097 ft 515 kts 147°
2026-04-27 03:06 39.39530 22.70297 35088 ft 515 kts 147°
2026-04-27 03:07 39.33668 22.75477 35079 ft 515 kts 147°
2026-04-27 03:07 39.27748 22.80695 35078 ft 515 kts 147°
2026-04-27 03:08 39.21831 22.85901 35075 ft 515 kts 147°
2026-04-27 03:08 39.15916 22.91095 35077 ft 514 kts 147°
2026-04-27 03:09 39.09999 22.96280 35086 ft 514 kts 147°
2026-04-27 03:09 39.04083 23.01453 35084 ft 514 kts 147°
2026-04-27 03:10 38.98202 23.06585 35093 ft 514 kts 147°
2026-04-27 03:10 38.92284 23.11738 35098 ft 514 kts 147°
2026-04-27 03:11 38.86363 23.16883 35096 ft 513 kts 147°
2026-04-27 03:11 38.80446 23.22016 35092 ft 513 kts 147°
2026-04-27 03:12 38.74530 23.27136 35095 ft 513 kts 147°
2026-04-27 03:12 38.68615 23.32245 35095 ft 513 kts 147°
2026-04-27 03:13 38.62729 23.37319 35097 ft 513 kts 147°
2026-04-27 03:13 38.56799 23.42420 35098 ft 513 kts 147°
2026-04-27 03:14 38.50874 23.47507 35098 ft 513 kts 147°
2026-04-27 03:14 38.44951 23.52582 35096 ft 513 kts 148°
2026-04-27 03:15 38.39018 23.57655 35090 ft 513 kts 148°
2026-04-27 03:15 38.33080 23.62723 35079 ft 514 kts 148°
2026-04-27 03:16 38.27141 23.67782 35069 ft 514 kts 148°
2026-04-27 03:16 38.21197 23.72837 35070 ft 514 kts 148°
2026-04-27 03:17 38.15242 23.77904 35058 ft 514 kts 147°
2026-04-27 03:17 38.09390 23.83039 35083 ft 515 kts 147°
2026-04-27 03:18 38.03514 23.88241 35076 ft 515 kts 147°
2026-04-27 03:18 37.97621 23.93427 35072 ft 515 kts 147°
2026-04-27 03:19 37.91726 23.98587 35076 ft 515 kts 147°
2026-04-27 03:19 37.85828 24.03737 35074 ft 515 kts 147°
2026-04-27 03:20 37.79916 24.08890 35072 ft 515 kts 147°
2026-04-27 03:20 37.74016 24.14024 35072 ft 515 kts 147°
2026-04-27 03:21 37.68111 24.19151 35062 ft 515 kts 147°
2026-04-27 03:21 37.62207 24.24270 35060 ft 515 kts 147°
2026-04-27 03:22 37.56364 24.29409 35067 ft 516 kts 144°
2026-04-27 03:22 37.51041 24.35490 35064 ft 517 kts 136°
2026-04-27 03:23 37.45957 24.41919 35058 ft 518 kts 136°
2026-04-27 03:23 37.40853 24.48315 35046 ft 518 kts 137°
2026-04-27 03:24 37.35716 24.54676 35056 ft 518 kts 137°
2026-04-27 03:24 37.30560 24.61029 35049 ft 519 kts 137°
2026-04-27 03:25 37.25400 24.67378 35051 ft 519 kts 137°
2026-04-27 03:25 37.20239 24.73718 35050 ft 520 kts 137°
2026-04-27 03:26 37.15056 24.80074 35241 ft 522 kts 137°
2026-04-27 03:26 37.12458 24.83256 35483 ft 521 kts 137°
2026-04-27 03:26 37.09893 24.86394 35712 ft 521 kts 137°
2026-04-27 03:26 37.07304 24.89558 35918 ft 520 kts 137°
2026-04-27 03:27 37.04707 24.92728 36107 ft 521 kts 137°
2026-04-27 03:27 37.02109 24.95896 36281 ft 521 kts 137°
2026-04-27 03:27 36.99510 24.99063 36524 ft 520 kts 137°
2026-04-27 03:27 36.96921 25.02216 36822 ft 517 kts 137°
2026-04-27 03:28 36.94348 25.05346 37028 ft 516 kts 137°
2026-04-27 03:28 36.89229 25.11529 37036 ft 507 kts 138°
2026-04-27 03:29 36.84161 25.17527 37042 ft 504 kts 138°
2026-04-27 03:29 36.79062 25.23545 37048 ft 504 kts 138°
2026-04-27 03:30 36.73965 25.29572 37052 ft 505 kts 138°
2026-04-27 03:30 36.68854 25.35609 37046 ft 507 kts 138°
2026-04-27 03:31 36.63733 25.41661 37047 ft 508 kts 137°
2026-04-27 03:31 36.58673 25.47809 37049 ft 508 kts 137°
2026-04-27 03:32 36.53623 25.53988 37048 ft 509 kts 137°
2026-04-27 03:32 36.48560 25.60147 37045 ft 509 kts 137°
2026-04-27 03:33 36.43489 25.66287 37048 ft 509 kts 137°
2026-04-27 03:33 36.38444 25.72382 37045 ft 509 kts 137°
2026-04-27 03:34 36.33366 25.78507 37040 ft 509 kts 137°
2026-04-27 03:34 36.28285 25.84627 37045 ft 509 kts 137°
2026-04-27 03:35 36.23202 25.90733 37045 ft 509 kts 137°
2026-04-27 03:35 36.18074 25.96788 37042 ft 509 kts 138°
2026-04-27 03:36 36.12967 26.02771 37043 ft 509 kts 138°
2026-04-27 03:36 36.07820 26.08805 37044 ft 510 kts 138°
2026-04-27 03:37 36.02669 26.14844 37039 ft 511 kts 138°
2026-04-27 03:37 35.97506 26.20886 37035 ft 511 kts 138°
2026-04-27 03:38 35.92337 26.26922 37033 ft 512 kts 138°
2026-04-27 03:38 35.87148 26.32978 37033 ft 512 kts 138°
2026-04-27 03:39 35.82008 26.38976 37027 ft 513 kts 138°
2026-04-27 03:39 35.76821 26.45017 37033 ft 513 kts 138°
2026-04-27 03:40 35.71631 26.51049 37032 ft 513 kts 138°
2026-04-27 03:40 35.66441 26.57070 37022 ft 513 kts 138°
2026-04-27 03:41 35.61242 26.63090 37024 ft 513 kts 138°
2026-04-27 03:41 35.56042 26.69100 37021 ft 513 kts 138°
2026-04-27 03:42 35.50839 26.75103 37019 ft 513 kts 138°
2026-04-27 03:42 35.45635 26.81095 37012 ft 513 kts 138°
2026-04-27 03:43 35.40421 26.87089 36998 ft 513 kts 138°
2026-04-27 03:43 35.35201 26.93080 36995 ft 514 kts 138°
2026-04-27 03:44 35.30001 26.99025 36999 ft 514 kts 138°
2026-04-27 03:44 35.24761 27.05000 36998 ft 515 kts 138°
2026-04-27 03:45 35.19515 27.10976 36993 ft 516 kts 138°
2026-04-27 03:45 35.14250 27.16964 36992 ft 516 kts 138°
2026-04-27 03:46 35.08980 27.22933 36994 ft 517 kts 139°
2026-04-27 03:46 35.03735 27.28850 36998 ft 517 kts 139°
2026-04-27 03:47 34.98452 27.34805 36994 ft 517 kts 139°
2026-04-27 03:47 34.93159 27.40766 36996 ft 518 kts 139°
2026-04-27 03:48 34.87854 27.46731 36996 ft 518 kts 139°
2026-04-27 03:48 34.82588 27.52642 36994 ft 518 kts 139°
2026-04-27 03:49 34.77276 27.58593 37003 ft 518 kts 139°
2026-04-27 03:49 34.71969 27.64527 36983 ft 519 kts 139°
2026-04-27 03:50 34.66654 27.70459 36976 ft 519 kts 139°
2026-04-27 03:50 34.61330 27.76390 36994 ft 519 kts 139°
2026-04-27 03:51 34.55998 27.82320 36997 ft 520 kts 139°
2026-04-27 03:51 34.50688 27.88214 36990 ft 520 kts 139°
2026-04-27 03:52 34.45340 27.94141 36992 ft 521 kts 139°
2026-04-27 03:52 34.39980 28.00068 36994 ft 521 kts 139°
2026-04-27 03:53 34.34615 28.05992 36993 ft 522 kts 139°
2026-04-27 03:53 34.29243 28.11913 36969 ft 523 kts 139°
2026-04-27 03:54 34.24763 28.16841 36987 ft 524 kts 139°
2026-04-27 03:54 34.19364 28.22772 36984 ft 524 kts 139°
2026-04-27 03:55 34.13960 28.28696 36962 ft 525 kts 139°
2026-04-27 03:55 34.08538 28.34631 36982 ft 526 kts 139°
2026-04-27 03:56 34.03142 28.40525 36984 ft 527 kts 139°
2026-04-27 03:56 33.97697 28.46464 36978 ft 528 kts 139°
2026-04-27 03:57 33.92243 28.52402 36985 ft 528 kts 139°
2026-04-27 03:57 33.86783 28.58334 36981 ft 529 kts 139°
2026-04-27 03:58 33.81314 28.64268 36984 ft 530 kts 139°
2026-04-27 03:58 33.75836 28.70201 36981 ft 530 kts 139°
2026-04-27 03:59 33.70346 28.76143 36980 ft 531 kts 139°
2026-04-27 03:59 33.64929 28.82183 36982 ft 532 kts 138°
2026-04-27 04:00 33.59573 28.88239 36983 ft 532 kts 138°
2026-04-27 04:00 33.54169 28.94321 36982 ft 533 kts 138°
2026-04-27 04:01 33.48750 29.00383 36978 ft 533 kts 138°
2026-04-27 04:01 33.43317 29.06441 36981 ft 534 kts 138°
2026-04-27 04:02 33.37882 29.12492 36981 ft 534 kts 138°
2026-04-27 04:02 33.32428 29.18555 36980 ft 535 kts 138°
2026-04-27 04:03 33.26967 29.24616 36974 ft 536 kts 138°
2026-04-27 04:03 33.21492 29.30682 36986 ft 538 kts 138°
2026-04-27 04:04 33.16031 29.36720 36988 ft 539 kts 139°
2026-04-27 04:04 33.10512 29.42811 36976 ft 541 kts 139°
2026-04-27 04:05 33.04982 29.48904 36978 ft 541 kts 139°
2026-04-27 04:05 32.99450 29.54989 36976 ft 541 kts 139°
2026-04-27 04:06 32.94237 29.60713 36981 ft 541 kts 139°
2026-04-27 04:06 32.88702 29.66780 36977 ft 541 kts 139°
2026-04-27 04:07 32.80387 29.75874 36980 ft 541 kts 139°
2026-04-27 04:07 32.74840 29.81927 36978 ft 542 kts 139°
2026-04-27 04:08 32.69278 29.87986 36977 ft 542 kts 139°
2026-04-27 04:08 32.63714 29.94036 36975 ft 543 kts 140°
2026-04-27 04:09 32.58170 30.00055 36974 ft 544 kts 140°
2026-04-27 04:09 32.52579 30.06116 36974 ft 545 kts 140°
2026-04-27 04:10 32.46968 30.12185 36974 ft 546 kts 140°
2026-04-27 04:10 32.41342 30.18249 36973 ft 547 kts 140°
2026-04-27 04:11 32.35707 30.24314 36976 ft 548 kts 140°
2026-04-27 04:11 32.30055 30.30389 36976 ft 549 kts 140°
2026-04-27 04:12 32.24395 30.36465 36972 ft 550 kts 141°
2026-04-27 04:12 32.18720 30.42545 36971 ft 551 kts 141°
2026-04-27 04:13 32.13034 30.48626 36966 ft 551 kts 141°
2026-04-27 04:13 32.07346 30.54699 36968 ft 551 kts 141°
2026-04-27 04:14 32.01657 30.60761 36968 ft 552 kts 141°
2026-04-27 04:14 31.95958 30.66825 36966 ft 552 kts 142°
2026-04-27 04:15 31.90286 30.72848 36961 ft 552 kts 142°
2026-04-27 04:15 31.84578 30.78900 36959 ft 552 kts 142°
2026-04-27 04:16 31.78863 30.84948 36958 ft 552 kts 142°
2026-04-27 04:16 31.73149 30.90986 36956 ft 552 kts 142°
2026-04-27 04:17 31.67424 30.97024 36959 ft 552 kts 143°
2026-04-27 04:17 31.61697 31.03056 36954 ft 553 kts 143°
2026-04-27 04:18 31.55871 31.08890 36952 ft 545 kts 152°
2026-04-27 04:18 31.49199 31.12735 36972 ft 528 kts 168°
2026-04-27 04:19 31.42372 31.14404 36971 ft 515 kts 180°
2026-04-27 04:19 31.35305 31.15554 36960 ft 517 kts 179°
2026-04-27 04:20 31.28193 31.16836 36962 ft 517 kts 179°
2026-04-27 04:20 31.21081 31.18159 36962 ft 517 kts 179°
2026-04-27 04:21 31.13977 31.19485 36966 ft 516 kts 179°
2026-04-27 04:21 31.06888 31.20807 36961 ft 515 kts 179°
2026-04-27 04:22 30.99811 31.22124 36961 ft 514 kts 179°
2026-04-27 04:22 30.92750 31.23434 36957 ft 513 kts 179°
2026-04-27 04:23 30.85708 31.24739 36956 ft 512 kts 179°
2026-04-27 04:23 30.78664 31.26043 36970 ft 511 kts 180°
2026-04-27 04:24 30.71675 31.27335 36968 ft 511 kts 180°
2026-04-27 04:24 30.64654 31.28630 36967 ft 511 kts 180°
2026-04-27 04:25 30.57627 31.29925 36969 ft 510 kts 180°
2026-04-27 04:25 30.50609 31.31217 36966 ft 510 kts 180°
2026-04-27 04:26 30.43587 31.32507 36966 ft 510 kts 180°
2026-04-27 04:26 30.36580 31.33793 36962 ft 509 kts 180°
2026-04-27 04:27 30.29655 31.35062 36958 ft 509 kts 180°
2026-04-27 04:27 30.29415 31.35106 36953 ft 509 kts 180°
2026-04-27 04:28 30.23629 31.36165 36952 ft 508 kts 180°
2026-04-27 04:28 30.16645 31.37441 36952 ft 507 kts 180°
2026-04-27 04:29 30.09721 31.39462 36967 ft 526 kts 167°
2026-04-27 04:29 30.03220 31.43615 36965 ft 545 kts 152°
2026-04-27 04:30 29.97139 31.48888 36965 ft 547 kts 150°
2026-04-27 04:30 29.91092 31.54216 36968 ft 547 kts 151°
2026-04-27 04:31 29.85000 31.59474 36981 ft 546 kts 152°
2026-04-27 04:31 29.78893 31.64667 36989 ft 546 kts 152°
2026-04-27 04:32 29.72778 31.69846 36992 ft 546 kts 152°
2026-04-27 04:32 29.66652 31.75034 36987 ft 546 kts 152°
2026-04-27 04:33 29.60521 31.80225 36994 ft 546 kts 152°
2026-04-27 04:33 29.54401 31.85400 37003 ft 546 kts 152°
2026-04-27 04:34 29.48305 31.90543 37039 ft 547 kts 151°
2026-04-27 04:34 29.42148 31.95731 37003 ft 548 kts 151°
2026-04-27 04:35 29.35997 32.00909 36998 ft 548 kts 151°
2026-04-27 04:35 29.29838 32.06084 37004 ft 548 kts 151°
2026-04-27 04:36 29.23680 32.11250 37000 ft 549 kts 151°
2026-04-27 04:36 29.17517 32.16412 37007 ft 549 kts 152°
2026-04-27 04:37 29.11356 32.21565 36993 ft 549 kts 152°
2026-04-27 04:37 29.05192 32.26712 36999 ft 549 kts 152°
2026-04-27 04:38 28.99024 32.31855 37001 ft 549 kts 152°
2026-04-27 04:38 28.93899 32.36122 37003 ft 549 kts 152°
2026-04-27 04:39 28.86666 32.42135 37022 ft 552 kts 152°
2026-04-27 04:39 28.81492 32.46430 36978 ft 555 kts 152°
2026-04-27 04:40 28.75256 32.51599 36995 ft 553 kts 152°
2026-04-27 04:40 28.69035 32.56751 37001 ft 552 kts 153°
2026-04-27 04:41 28.62821 32.61888 37004 ft 551 kts 153°
2026-04-27 04:41 28.56613 32.67011 37014 ft 551 kts 153°
2026-04-27 04:42 28.50393 32.72135 37007 ft 552 kts 153°
2026-04-27 04:42 28.44210 32.77222 37000 ft 553 kts 153°
2026-04-27 04:43 28.37936 32.82377 36990 ft 553 kts 153°
2026-04-27 04:43 28.31731 32.87467 36989 ft 554 kts 153°
2026-04-27 04:44 28.25478 32.92590 36983 ft 555 kts 153°
2026-04-27 04:44 28.19208 32.97720 36984 ft 556 kts 153°
2026-04-27 04:45 28.12915 33.02860 36980 ft 557 kts 154°
2026-04-27 04:45 28.06630 33.07988 36972 ft 557 kts 154°
2026-04-27 04:46 28.00334 33.13116 36970 ft 558 kts 154°
2026-04-27 04:46 27.94025 33.18244 36975 ft 558 kts 154°
2026-04-27 04:47 27.87721 33.23362 36965 ft 558 kts 154°
2026-04-27 04:47 27.81448 33.28450 36959 ft 558 kts 154°
2026-04-27 04:48 27.75138 33.33559 36945 ft 558 kts 154°
2026-04-27 04:48 27.68831 33.38660 36952 ft 558 kts 154°
2026-04-27 04:49 27.62526 33.43753 36953 ft 558 kts 154°
2026-04-27 04:49 27.56208 33.48847 36955 ft 558 kts 154°
2026-04-27 04:50 27.49886 33.53937 36943 ft 558 kts 154°
2026-04-27 04:50 27.43566 33.59003 36949 ft 557 kts 154°
2026-04-27 04:51 27.37244 33.64065 36939 ft 558 kts 154°
2026-04-27 04:51 27.30912 33.69131 36936 ft 558 kts 154°
2026-04-27 04:52 27.24573 33.74196 36936 ft 559 kts 154°
2026-04-27 04:52 27.18732 33.80155 36932 ft 583 kts 136°
2026-04-27 04:53 27.14479 33.88058 36929 ft 603 kts 117°
2026-04-27 04:53 27.11492 33.96899 36931 ft 607 kts 115°
2026-04-27 04:54 27.08507 34.05753 36934 ft 606 kts 116°
2026-04-27 04:54 27.05388 34.14478 36929 ft 606 kts 117°
2026-04-27 04:55 27.02223 34.23258 36927 ft 607 kts 117°
2026-04-27 04:55 26.99075 34.32031 36929 ft 606 kts 117°
2026-04-27 04:56 26.95921 34.40798 36926 ft 606 kts 117°
2026-04-27 04:56 26.92768 34.49541 36922 ft 605 kts 117°
2026-04-27 04:57 26.89612 34.58273 36928 ft 605 kts 117°
2026-04-27 04:57 26.86452 34.66998 36927 ft 604 kts 117°
2026-04-27 04:58 26.83286 34.75717 36924 ft 604 kts 117°
2026-04-27 04:58 26.80119 34.84423 36925 ft 603 kts 118°
2026-04-27 04:59 26.76948 34.93121 36924 ft 603 kts 118°
2026-04-27 04:59 26.73775 35.01805 36926 ft 603 kts 118°
2026-04-27 05:00 26.70598 35.10482 36926 ft 602 kts 118°
2026-04-27 05:00 26.67416 35.19157 36928 ft 602 kts 118°
2026-04-27 05:01 26.64232 35.27820 36919 ft 602 kts 118°
2026-04-27 05:01 26.61044 35.36477 36917 ft 602 kts 118°
2026-04-27 05:02 26.57858 35.45109 36913 ft 601 kts 118°
2026-04-27 05:03 26.53010 35.58008 36902 ft 599 kts 119°
2026-04-27 05:03 26.49743 35.66497 36901 ft 598 kts 119°
2026-04-27 05:04 26.46471 35.75031 36906 ft 599 kts 117°
2026-04-27 05:04 26.43935 35.83936 36894 ft 607 kts 106°
2026-04-27 05:05 26.42202 35.93150 36893 ft 607 kts 105°
2026-04-27 05:05 26.40468 36.02355 36895 ft 606 kts 106°
2026-04-27 05:06 26.38668 36.11541 36892 ft 606 kts 107°
2026-04-27 05:06 26.36833 36.20705 36900 ft 605 kts 107°
2026-04-27 05:07 26.34992 36.29858 36903 ft 605 kts 107°
2026-04-27 05:07 26.33152 36.39013 36901 ft 605 kts 107°
2026-04-27 05:08 26.31309 36.48168 36910 ft 605 kts 107°
2026-04-27 05:08 26.29461 36.57320 36907 ft 605 kts 107°
2026-04-27 05:09 26.27605 36.66473 36904 ft 605 kts 107°
2026-04-27 05:09 26.25745 36.75613 36910 ft 605 kts 107°
2026-04-27 05:10 26.23875 36.84773 36901 ft 605 kts 107°
2026-04-27 05:10 26.22004 36.93908 36905 ft 605 kts 107°
2026-04-27 05:11 26.20125 37.03046 36905 ft 605 kts 107°
2026-04-27 05:11 26.18254 37.12117 36914 ft 605 kts 107°
2026-04-27 05:12 26.16363 37.21248 36920 ft 605 kts 107°
2026-04-27 05:12 26.14465 37.30386 36936 ft 605 kts 107°
2026-04-27 05:13 26.12565 37.39512 36929 ft 606 kts 107°
2026-04-27 05:13 26.10653 37.48662 36930 ft 606 kts 107°
2026-04-27 05:14 26.08738 37.57788 36931 ft 606 kts 108°
2026-04-27 05:14 26.06620 37.66839 36912 ft 601 kts 114°
2026-04-27 05:15 26.03446 37.75288 36938 ft 594 kts 121°
2026-04-27 05:15 26.00001 37.83637 36925 ft 594 kts 121°
2026-04-27 05:16 25.96594 37.91997 36911 ft 593 kts 120°
2026-04-27 05:16 25.93231 38.00382 36901 ft 594 kts 120°
2026-04-27 05:17 25.89881 38.08759 36887 ft 593 kts 120°
2026-04-27 05:17 25.86592 38.16956 36887 ft 592 kts 120°
2026-04-27 05:18 25.83859 38.23743 36892 ft 591 kts 120°
2026-04-27 05:18 25.80497 38.32074 36906 ft 591 kts 120°
2026-04-27 05:19 25.77138 38.40378 36903 ft 590 kts 120°
2026-04-27 05:19 25.73796 38.48629 36903 ft 589 kts 120°
2026-04-27 05:20 25.70432 38.56914 36908 ft 589 kts 120°
2026-04-27 05:20 25.67065 38.65190 36918 ft 588 kts 120°
2026-04-27 05:21 25.63697 38.73454 36952 ft 588 kts 120°
2026-04-27 05:21 25.60316 38.81737 36938 ft 589 kts 120°
2026-04-27 05:22 25.56937 38.89996 36942 ft 589 kts 120°
2026-04-27 05:22 25.53574 38.98202 36956 ft 588 kts 120°
2026-04-27 05:23 25.50192 39.06437 36954 ft 587 kts 120°
2026-04-27 05:23 25.46804 39.14672 36963 ft 586 kts 120°
2026-04-27 05:24 25.43425 39.22867 36971 ft 585 kts 120°
2026-04-27 05:24 25.40612 39.29679 36976 ft 584 kts 120°
2026-04-27 05:25 25.36683 39.39173 36985 ft 584 kts 120°
2026-04-27 05:25 25.33870 39.45960 36985 ft 583 kts 120°
2026-04-27 05:26 25.30485 39.54111 36993 ft 583 kts 120°
2026-04-27 05:26 25.27100 39.62248 37000 ft 583 kts 120°
2026-04-27 05:27 25.23705 39.70392 37006 ft 583 kts 120°
2026-04-27 05:27 25.20309 39.78524 37003 ft 583 kts 120°
2026-04-27 05:28 25.16912 39.86643 37008 ft 583 kts 120°
2026-04-27 05:28 25.13506 39.94769 37007 ft 582 kts 120°
2026-04-27 05:29 25.10105 40.02868 37002 ft 582 kts 120°
2026-04-27 05:29 25.06698 40.10967 37012 ft 582 kts 120°
2026-04-27 05:30 25.03283 40.19068 36991 ft 582 kts 120°
2026-04-27 05:30 24.99893 40.27096 37001 ft 581 kts 120°
2026-04-27 05:31 24.96476 40.35175 36989 ft 581 kts 120°
2026-04-27 05:31 24.93059 40.43238 36993 ft 580 kts 120°
2026-04-27 05:32 24.89634 40.51305 36991 ft 580 kts 120°
2026-04-27 05:32 24.86213 40.59346 36992 ft 580 kts 120°
2026-04-27 05:33 24.82787 40.67386 36987 ft 579 kts 120°
2026-04-27 05:33 24.79363 40.75408 36992 ft 579 kts 120°
2026-04-27 05:34 24.75934 40.83425 37003 ft 579 kts 120°
2026-04-27 05:34 24.72524 40.91383 36983 ft 578 kts 120°
2026-04-27 05:35 24.69093 40.99378 36992 ft 578 kts 120°
2026-04-27 05:35 24.65654 41.07377 36990 ft 578 kts 120°
2026-04-27 05:36 24.62215 41.15362 36991 ft 577 kts 120°
2026-04-27 05:36 24.58777 41.23330 36995 ft 576 kts 120°
2026-04-27 05:37 24.55357 41.31241 36999 ft 576 kts 120°
2026-04-27 05:37 24.51913 41.39196 37004 ft 576 kts 120°
2026-04-27 05:38 24.48471 41.47132 36999 ft 575 kts 120°
2026-04-27 05:38 24.45027 41.55057 36998 ft 575 kts 120°
2026-04-27 05:39 24.41579 41.62978 37004 ft 575 kts 120°
2026-04-27 05:39 24.38149 41.70848 37005 ft 575 kts 120°
2026-04-27 05:40 24.34805 41.78811 37000 ft 577 kts 115°
2026-04-27 05:40 24.32467 41.87273 37003 ft 582 kts 105°
2026-04-27 05:41 24.31245 41.96062 36999 ft 584 kts 99°
2026-04-27 05:41 24.30252 42.04751 36997 ft 584 kts 99°
2026-04-27 05:42 24.29205 42.13573 36994 ft 584 kts 99°
2026-04-27 05:42 24.28102 42.22395 36998 ft 584 kts 99°
2026-04-27 05:43 24.26986 42.31152 36994 ft 583 kts 99°
2026-04-27 05:43 24.25860 42.39961 36995 ft 583 kts 99°
2026-04-27 05:44 24.24736 42.48759 36994 ft 582 kts 99°
2026-04-27 05:44 24.23610 42.57544 37001 ft 581 kts 99°
2026-04-27 05:45 24.22480 42.66317 37003 ft 581 kts 99°
2026-04-27 05:45 24.21345 42.75083 36994 ft 580 kts 99°
2026-04-27 05:46 24.20207 42.83836 36999 ft 580 kts 99°
2026-04-27 05:46 24.19072 42.92523 37002 ft 580 kts 99°
2026-04-27 05:47 24.17926 43.01253 37008 ft 579 kts 99°
2026-04-27 05:47 24.16772 43.10004 37005 ft 579 kts 100°
2026-04-27 05:48 24.15615 43.18743 36996 ft 579 kts 100°
2026-04-27 05:48 24.14455 43.27464 37009 ft 579 kts 100°
2026-04-27 05:49 24.13289 43.36190 36997 ft 579 kts 100°
2026-04-27 05:49 24.12118 43.44912 36994 ft 578 kts 99°
2026-04-27 05:50 24.10952 43.53563 36993 ft 578 kts 100°
2026-04-27 05:50 24.09775 43.62259 37004 ft 578 kts 100°
2026-04-27 05:51 24.08589 43.70982 36997 ft 577 kts 100°
2026-04-27 05:51 24.07401 43.79678 36991 ft 577 kts 100°
2026-04-27 05:52 24.06211 43.88356 36989 ft 577 kts 100°
2026-04-27 05:52 24.05021 43.96994 36991 ft 577 kts 100°
2026-04-27 05:53 24.03821 44.05674 36984 ft 577 kts 100°
2026-04-27 05:53 24.02616 44.14344 36988 ft 576 kts 100°
2026-04-27 05:54 24.01407 44.23006 36993 ft 576 kts 100°
2026-04-27 05:54 24.00194 44.31665 36990 ft 575 kts 100°
2026-04-27 05:55 23.98984 44.40270 36993 ft 575 kts 100°
2026-04-27 05:55 23.97763 44.48913 36993 ft 574 kts 100°
2026-04-27 05:56 23.96540 44.57536 36996 ft 574 kts 100°
2026-04-27 05:56 23.95311 44.66163 36998 ft 574 kts 100°
2026-04-27 05:57 23.94077 44.74788 36994 ft 574 kts 100°
2026-04-27 05:57 23.92839 44.83407 36997 ft 574 kts 100°
2026-04-27 05:58 23.91597 44.92023 37002 ft 574 kts 100°
2026-04-27 05:58 23.90348 45.00648 37013 ft 574 kts 100°
2026-04-27 05:59 23.89094 45.09274 37001 ft 574 kts 100°
2026-04-27 05:59 23.87843 45.17847 37002 ft 574 kts 100°
2026-04-27 06:00 23.85947 45.30774 36997 ft 574 kts 100°
2026-04-27 06:00 23.84676 45.39393 36990 ft 574 kts 100°
2026-04-27 06:01 23.83402 45.48000 36993 ft 574 kts 100°
2026-04-27 06:01 23.82123 45.56607 36993 ft 574 kts 100°
2026-04-27 06:02 23.80840 45.65210 36990 ft 574 kts 100°
2026-04-27 06:02 23.79552 45.73813 36986 ft 574 kts 100°
2026-04-27 06:03 23.78259 45.82411 36991 ft 573 kts 100°
2026-04-27 06:03 23.76969 45.90960 36987 ft 574 kts 101°
2026-04-27 06:04 23.75667 45.99555 36987 ft 574 kts 101°
2026-04-27 06:04 23.74360 46.08147 36987 ft 573 kts 101°
2026-04-27 06:05 23.73050 46.16729 36991 ft 573 kts 101°
2026-04-27 06:05 23.71744 46.25253 36985 ft 573 kts 101°
2026-04-27 06:06 23.70424 46.33833 36990 ft 572 kts 101°
2026-04-27 06:06 23.69102 46.42402 36985 ft 572 kts 101°
2026-04-27 06:07 23.67783 46.50904 36986 ft 572 kts 100°
2026-04-27 06:07 23.66448 46.59482 36976 ft 573 kts 101°
2026-04-27 06:08 23.65111 46.68049 36969 ft 573 kts 101°
2026-04-27 06:08 23.63767 46.76624 36968 ft 573 kts 101°
2026-04-27 06:09 23.62420 46.85187 36962 ft 573 kts 101°
2026-04-27 06:09 23.61068 46.93750 36958 ft 573 kts 101°
2026-04-27 06:10 23.59721 47.02246 36959 ft 572 kts 101°
2026-04-27 06:10 23.58360 47.10803 36952 ft 572 kts 101°
2026-04-27 06:11 23.56996 47.19349 36950 ft 572 kts 101°
2026-04-27 06:11 23.55628 47.27888 36949 ft 572 kts 101°
2026-04-27 06:12 23.54256 47.36418 36948 ft 571 kts 101°
2026-04-27 06:12 23.52879 47.44953 36943 ft 571 kts 101°
2026-04-27 06:13 23.51732 47.52035 36946 ft 571 kts 101°
2026-04-27 06:13 23.50349 47.60554 36943 ft 571 kts 101°
2026-04-27 06:14 23.48735 47.70451 36939 ft 571 kts 101°
2026-04-27 06:14 23.47568 47.77580 36936 ft 571 kts 101°
2026-04-27 06:15 23.46180 47.86036 36937 ft 571 kts 101°
2026-04-27 06:15 23.44778 47.94549 36934 ft 571 kts 101°
2026-04-27 06:16 23.43372 48.03058 36929 ft 571 kts 101°
2026-04-27 06:16 23.41961 48.11563 36925 ft 570 kts 101°
2026-04-27 06:17 23.40547 48.20057 36927 ft 570 kts 101°
2026-04-27 06:17 23.39130 48.28545 36919 ft 570 kts 101°
2026-04-27 06:18 23.37972 48.37078 36924 ft 570 kts 94°
2026-04-27 06:18 23.37642 48.45641 36925 ft 570 kts 91°
2026-04-27 06:19 23.37381 48.54263 36922 ft 570 kts 92°
2026-04-27 06:19 23.37057 48.62901 36921 ft 570 kts 92°
2026-04-27 06:20 23.36696 48.71510 36916 ft 570 kts 92°
2026-04-27 06:20 23.36330 48.80126 36917 ft 569 kts 92°
2026-04-27 06:21 23.35967 48.88681 36913 ft 569 kts 92°
2026-04-27 06:21 23.35600 48.97276 36914 ft 568 kts 92°
2026-04-27 06:22 23.35213 49.05862 36913 ft 568 kts 94°
2026-04-27 06:22 23.34194 49.14383 36920 ft 567 kts 99°
2026-04-27 06:23 23.32912 49.22844 36911 ft 567 kts 100°
2026-04-27 06:23 23.31635 49.31311 36908 ft 567 kts 99°
2026-04-27 06:24 23.30406 49.39717 36908 ft 567 kts 99°
2026-04-27 06:24 23.29181 49.48192 36906 ft 566 kts 99°
2026-04-27 06:25 23.27951 49.56665 36905 ft 566 kts 99°
2026-04-27 06:25 23.26714 49.65124 36903 ft 566 kts 99°
2026-04-27 06:26 23.25472 49.73570 36904 ft 566 kts 99°
2026-04-27 06:26 23.24232 49.81976 36901 ft 566 kts 99°
2026-04-27 06:27 23.22980 49.90429 36904 ft 566 kts 99°
2026-04-27 06:27 23.21724 49.98882 36903 ft 565 kts 99°
2026-04-27 06:28 23.20464 50.07325 36899 ft 565 kts 99°
2026-04-27 06:28 23.19202 50.15751 36900 ft 565 kts 99°
2026-04-27 06:29 23.17943 50.24129 36896 ft 565 kts 99°
2026-04-27 06:29 23.16673 50.32547 36894 ft 564 kts 99°
2026-04-27 06:30 23.15398 50.40969 36895 ft 564 kts 99°
2026-04-27 06:30 23.14120 50.49375 36898 ft 564 kts 99°
2026-04-27 06:31 23.12837 50.57785 36896 ft 563 kts 99°
2026-04-27 06:31 23.11551 50.66181 36894 ft 563 kts 99°
2026-04-27 06:32 23.10270 50.74522 36894 ft 563 kts 99°
2026-04-27 06:32 23.08977 50.82903 36892 ft 562 kts 99°
2026-04-27 06:33 23.07679 50.91291 36894 ft 562 kts 99°
2026-04-27 06:33 23.06379 50.99662 36889 ft 562 kts 99°
2026-04-27 06:34 23.05075 51.08026 36890 ft 562 kts 99°
2026-04-27 06:34 23.03790 51.16235 36892 ft 561 kts 99°
2026-04-27 06:35 23.02478 51.24596 36892 ft 561 kts 99°
2026-04-27 06:35 23.01170 51.32897 36886 ft 561 kts 99°
2026-04-27 06:36 22.99852 51.41235 36887 ft 560 kts 99°
2026-04-27 06:36 22.98528 51.49581 36885 ft 560 kts 99°
2026-04-27 06:37 22.97201 51.57912 36886 ft 560 kts 99°
2026-04-27 06:37 22.95870 51.66241 36885 ft 560 kts 99°
2026-04-27 06:38 22.94534 51.74579 36885 ft 560 kts 99°
2026-04-27 06:38 22.93205 51.82840 36886 ft 559 kts 99°
2026-04-27 06:39 22.91864 51.91145 36881 ft 559 kts 99°
2026-04-27 06:39 22.90518 51.99455 36880 ft 559 kts 99°
2026-04-27 06:40 22.89167 52.07769 36882 ft 558 kts 99°
2026-04-27 06:40 22.87814 52.16064 36879 ft 558 kts 99°
2026-04-27 06:41 22.86459 52.24348 36881 ft 558 kts 99°
2026-04-27 06:41 22.85107 52.32584 36877 ft 558 kts 99°
2026-04-27 06:42 22.83742 52.40872 36878 ft 557 kts 99°
2026-04-27 06:42 22.82373 52.49162 36876 ft 557 kts 99°
2026-04-27 06:43 22.81239 52.57408 36876 ft 556 kts 96°
2026-04-27 06:43 22.80316 52.65732 36878 ft 556 kts 95°
2026-04-27 06:44 22.79379 52.74044 36876 ft 556 kts 96°
2026-04-27 06:44 22.78386 52.82341 36879 ft 555 kts 96°
2026-04-27 06:45 22.77366 52.90642 36880 ft 555 kts 96°
2026-04-27 06:45 22.76344 52.98932 36876 ft 555 kts 96°
2026-04-27 06:46 22.75330 53.07155 36873 ft 554 kts 96°
2026-04-27 06:46 22.74301 53.15477 36875 ft 553 kts 96°
2026-04-27 06:47 22.73282 53.23683 36876 ft 553 kts 96°
2026-04-27 06:47 22.72253 53.31938 36875 ft 553 kts 96°
2026-04-27 06:48 22.71220 53.40185 36876 ft 552 kts 96°
2026-04-27 06:48 22.70182 53.48433 36879 ft 552 kts 96°
2026-04-27 06:49 22.69143 53.56656 36877 ft 551 kts 96°
2026-04-27 06:49 22.68100 53.64882 36880 ft 551 kts 96°
2026-04-27 06:50 22.67052 53.73106 36875 ft 551 kts 96°
2026-04-27 06:50 22.66002 53.81322 36881 ft 551 kts 96°
2026-04-27 06:51 22.64953 53.89489 36873 ft 551 kts 96°
2026-04-27 06:51 22.63893 53.97709 36880 ft 551 kts 96°
2026-04-27 06:52 22.62829 54.05924 36876 ft 551 kts 96°
2026-04-27 06:52 22.61762 54.14130 36870 ft 551 kts 96°
2026-04-27 06:53 22.60690 54.22337 36872 ft 551 kts 96°
2026-04-27 06:53 22.59621 54.30491 36876 ft 551 kts 96°
2026-04-27 06:54 22.58542 54.38692 36878 ft 551 kts 96°
2026-04-27 06:54 22.57459 54.46893 36875 ft 551 kts 96°
2026-04-27 06:55 22.56371 54.55094 36876 ft 551 kts 96°
2026-04-27 06:55 22.55277 54.63306 36873 ft 551 kts 96°
2026-04-27 06:56 22.54180 54.71506 36865 ft 551 kts 96°
2026-04-27 06:56 22.53081 54.79693 36877 ft 551 kts 96°
2026-04-27 06:57 22.51975 54.87903 36870 ft 551 kts 96°
2026-04-27 06:57 22.50867 54.96099 36876 ft 550 kts 96°
2026-04-27 06:58 22.49195 55.08389 36873 ft 550 kts 96°
2026-04-27 06:59 22.48077 55.16576 36873 ft 550 kts 96°
2026-04-27 06:59 22.46963 55.24707 36874 ft 550 kts 96°
2026-04-27 07:00 22.45988 55.32900 36870 ft 547 kts 89°
2026-04-27 07:00 22.46733 55.41017 36881 ft 540 kts 73°
2026-04-27 07:01 22.49174 55.48609 36887 ft 533 kts 63°
2026-04-27 07:01 22.52052 55.55960 36876 ft 534 kts 63°
2026-04-27 07:02 22.54911 55.63393 36881 ft 536 kts 64°
2026-04-27 07:02 22.57719 55.70879 36880 ft 537 kts 64°
2026-04-27 07:03 22.60512 55.78389 36881 ft 537 kts 64°
2026-04-27 07:03 22.63302 55.85895 36881 ft 537 kts 64°
2026-04-27 07:04 22.66091 55.93398 36888 ft 537 kts 64°
2026-04-27 07:04 22.68409 55.99640 36883 ft 537 kts 64°
2026-04-27 07:05 22.71194 56.07152 36884 ft 537 kts 64°
2026-04-27 07:05 22.73974 56.14664 36886 ft 537 kts 64°
2026-04-27 07:06 22.76748 56.22173 36885 ft 536 kts 64°
2026-04-27 07:06 22.79516 56.29676 36889 ft 536 kts 64°
2026-04-27 07:07 22.82252 56.37202 36889 ft 537 kts 66°
2026-04-27 07:07 22.84165 56.45035 36996 ft 545 kts 75°
2026-04-27 07:07 22.84901 56.49064 37239 ft 544 kts 75°
2026-04-27 07:08 22.85621 56.53094 37526 ft 542 kts 75°
2026-04-27 07:08 22.86344 56.57113 37814 ft 541 kts 75°
2026-04-27 07:08 22.87076 56.61110 38080 ft 540 kts 75°
2026-04-27 07:08 22.87821 56.65098 38304 ft 539 kts 75°
2026-04-27 07:09 22.88571 56.69078 38576 ft 537 kts 75°
2026-04-27 07:09 22.89319 56.73033 38898 ft 534 kts 75°
2026-04-27 07:09 22.90066 56.76980 38898 ft 535 kts 75°
2026-04-27 07:10 22.91536 56.84784 38913 ft 527 kts 75°
2026-04-27 07:10 22.92992 56.92552 38919 ft 525 kts 75°
2026-04-27 07:11 22.94444 57.00315 38923 ft 525 kts 75°
2026-04-27 07:11 22.95892 57.08085 38923 ft 525 kts 75°
2026-04-27 07:12 22.97337 57.15861 38929 ft 526 kts 75°
2026-04-27 07:12 22.98780 57.23649 38918 ft 526 kts 75°
2026-04-27 07:13 23.00097 57.31427 38920 ft 529 kts 79°
2026-04-27 07:13 23.00496 57.39435 38923 ft 533 kts 85°
2026-04-27 07:14 23.00669 57.47480 38913 ft 533 kts 85°
2026-04-27 07:14 23.00885 57.55536 38907 ft 533 kts 85°
2026-04-27 07:15 23.01138 57.63567 38909 ft 532 kts 84°
2026-04-27 07:15 23.01389 57.71590 38898 ft 532 kts 84°
2026-04-27 07:16 23.01632 57.79636 38890 ft 532 kts 85°
2026-04-27 07:16 23.01853 57.87647 38888 ft 532 kts 86°
2026-04-27 07:17 23.01873 57.95632 38884 ft 532 kts 87°
2026-04-27 07:17 23.01831 58.03664 38878 ft 532 kts 87°
2026-04-27 07:18 23.01815 58.11704 38878 ft 532 kts 86°
2026-04-27 07:18 23.01816 58.19747 38872 ft 533 kts 86°
2026-04-27 07:19 23.01813 58.27803 38864 ft 533 kts 86°
2026-04-27 07:19 23.01803 58.35857 38855 ft 534 kts 87°
2026-04-27 07:20 23.01912 58.43914 38861 ft 533 kts 84°
2026-04-27 07:20 23.02239 58.51949 38831 ft 532 kts 84°
2026-04-27 07:21 23.02555 58.59912 38855 ft 531 kts 84°
2026-04-27 07:21 23.02825 58.67930 38835 ft 531 kts 84°
2026-04-27 07:22 23.03080 58.75947 38847 ft 531 kts 84°
2026-04-27 07:22 23.03335 58.83972 38838 ft 531 kts 84°
2026-04-27 07:23 23.03587 58.91995 38826 ft 532 kts 85°
2026-04-27 07:23 23.03835 59.00030 38818 ft 532 kts 85°
2026-04-27 07:24 23.04073 59.08082 38825 ft 533 kts 85°
2026-04-27 07:24 23.04303 59.16062 38820 ft 532 kts 85°
2026-04-27 07:25 23.04532 59.24094 38821 ft 532 kts 85°
2026-04-27 07:25 23.04757 59.32128 38807 ft 532 kts 85°
2026-04-27 07:26 23.04969 59.40165 38804 ft 532 kts 85°
2026-04-27 07:26 23.05100 59.48200 38799 ft 532 kts 86°
2026-04-27 07:27 23.05210 59.56233 38799 ft 532 kts 86°
2026-04-27 07:27 23.05328 59.64277 38798 ft 532 kts 86°
2026-04-27 07:28 23.05448 59.72267 38792 ft 532 kts 86°
2026-04-27 07:28 23.05565 59.80305 38797 ft 532 kts 86°
2026-04-27 07:29 23.05677 59.88357 38790 ft 532 kts 86°
2026-04-27 07:29 23.05778 59.96399 38790 ft 532 kts 86°
2026-04-27 07:30 23.05865 60.04393 38793 ft 532 kts 86°
2026-04-27 07:30 23.05949 60.12427 38792 ft 532 kts 86°
2026-04-27 07:31 23.06031 60.20468 38796 ft 532 kts 86°
2026-04-27 07:31 23.06109 60.28505 38791 ft 532 kts 86°
2026-04-27 07:32 23.06183 60.36488 38800 ft 532 kts 86°
2026-04-27 07:32 23.06253 60.44525 38793 ft 532 kts 86°
2026-04-27 07:33 23.06319 60.52556 38795 ft 532 kts 86°
2026-04-27 07:33 23.06382 60.60591 38792 ft 532 kts 86°
2026-04-27 07:34 23.06443 60.68616 38793 ft 532 kts 86°
2026-04-27 07:34 23.06507 60.76639 38793 ft 531 kts 86°
2026-04-27 07:35 23.06568 60.84672 38798 ft 531 kts 86°
2026-04-27 07:35 23.06624 60.92646 38790 ft 532 kts 86°
2026-04-27 07:36 23.06676 61.00675 38796 ft 532 kts 86°
2026-04-27 07:36 23.06723 61.08706 38795 ft 532 kts 86°
2026-04-27 07:37 23.06767 61.16748 38793 ft 532 kts 86°
2026-04-27 07:37 23.06807 61.24797 38792 ft 532 kts 86°
2026-04-27 07:38 23.06842 61.32780 38794 ft 532 kts 86°
2026-04-27 07:38 23.06874 61.40818 38790 ft 532 kts 86°
2026-04-27 07:39 23.06902 61.48863 38793 ft 533 kts 86°
2026-04-27 07:39 23.06935 61.56907 38792 ft 533 kts 86°
2026-04-27 07:40 23.06970 61.64966 38790 ft 533 kts 86°
2026-04-27 07:40 23.06999 61.73016 38786 ft 533 kts 86°
2026-04-27 07:41 23.07012 61.81066 38790 ft 533 kts 87°
2026-04-27 07:41 23.07011 61.89064 38787 ft 532 kts 87°
2026-04-27 07:42 23.07007 61.97113 38791 ft 532 kts 87°
2026-04-27 07:42 23.07001 62.05156 38790 ft 532 kts 87°
2026-04-27 07:43 23.06992 62.13193 38789 ft 532 kts 87°
2026-04-27 07:43 23.06978 62.21229 38787 ft 532 kts 87°
2026-04-27 07:44 23.06961 62.29263 38788 ft 532 kts 87°
2026-04-27 07:44 23.06940 62.37292 38788 ft 531 kts 87°
2026-04-27 07:45 23.06914 62.45267 38785 ft 531 kts 87°
2026-04-27 07:45 23.06884 62.53319 38786 ft 531 kts 87°
2026-04-27 07:46 23.06851 62.61294 38783 ft 531 kts 87°
2026-04-27 07:46 23.06813 62.69311 38786 ft 531 kts 87°
2026-04-27 07:47 23.06772 62.77333 38786 ft 531 kts 87°
2026-04-27 07:47 23.06726 62.85359 38784 ft 531 kts 87°
2026-04-27 07:48 23.06676 62.93374 38779 ft 531 kts 87°
2026-04-27 07:48 23.06622 63.01401 38778 ft 531 kts 87°
2026-04-27 07:49 23.06564 63.09411 38782 ft 531 kts 88°
2026-04-27 07:49 23.06502 63.17427 38780 ft 530 kts 88°
2026-04-27 07:50 23.06436 63.25436 38780 ft 530 kts 88°
2026-04-27 07:50 23.06367 63.33440 38782 ft 530 kts 88°
2026-04-27 07:51 23.06293 63.41446 38780 ft 530 kts 88°
2026-04-27 07:51 23.06215 63.49389 38778 ft 529 kts 88°
2026-04-27 07:52 23.06134 63.57386 38778 ft 529 kts 88°
2026-04-27 07:52 23.06048 63.65370 38779 ft 528 kts 88°
2026-04-27 07:53 23.05958 63.73347 38778 ft 528 kts 88°
2026-04-27 07:53 23.05881 63.79982 38779 ft 528 kts 88°
2026-04-27 07:54 23.05721 63.87946 38775 ft 529 kts 92°
2026-04-27 07:54 23.04821 63.97191 38784 ft 529 kts 94°
2026-04-27 07:55 23.04094 64.03847 38776 ft 529 kts 94°
2026-04-27 07:55 23.03122 64.13060 38778 ft 529 kts 94°
2026-04-27 07:56 23.02447 64.19655 38778 ft 528 kts 94°
2026-04-27 07:56 23.01637 64.27585 38778 ft 528 kts 94°
2026-04-27 07:57 23.00820 64.35520 38776 ft 528 kts 94°
2026-04-27 07:57 22.99999 64.43429 38777 ft 528 kts 94°
2026-04-27 07:58 22.99173 64.51341 38780 ft 527 kts 94°
2026-04-27 07:58 22.98344 64.59251 38778 ft 527 kts 95°
2026-04-27 07:59 22.97512 64.67155 38777 ft 527 kts 95°
2026-04-27 07:59 22.96263 64.78952 38780 ft 526 kts 95°
2026-04-27 08:00 22.95721 64.86856 38781 ft 524 kts 88°
2026-04-27 08:00 22.95784 64.94755 38784 ft 523 kts 87°
2026-04-27 08:01 22.95893 65.02646 38780 ft 523 kts 87°
2026-04-27 08:01 22.95963 65.10552 38779 ft 524 kts 88°
2026-04-27 08:02 22.96001 65.18459 38790 ft 524 kts 88°
2026-04-27 08:02 22.96030 65.26367 38786 ft 524 kts 88°
2026-04-27 08:03 22.96057 65.34221 38780 ft 524 kts 88°
2026-04-27 08:03 22.96082 65.42131 38782 ft 524 kts 88°
2026-04-27 08:04 22.96105 65.50046 38781 ft 524 kts 88°
2026-04-27 08:04 22.96123 65.57959 38773 ft 524 kts 88°
2026-04-27 08:05 22.96136 65.65865 38772 ft 524 kts 88°
2026-04-27 08:05 22.96146 65.73773 38781 ft 524 kts 88°
2026-04-27 08:06 22.96152 65.81671 38780 ft 523 kts 88°
2026-04-27 08:06 22.96154 65.89566 38780 ft 523 kts 88°
2026-04-27 08:07 22.96153 65.97466 38776 ft 523 kts 88°
2026-04-27 08:07 22.96147 66.05314 38779 ft 523 kts 88°
2026-04-27 08:08 22.96137 66.13209 38781 ft 523 kts 88°
2026-04-27 08:08 22.96124 66.21105 38783 ft 523 kts 89°
2026-04-27 08:09 22.96106 66.29001 38775 ft 523 kts 89°
2026-04-27 08:09 22.96085 66.36894 38781 ft 523 kts 89°
2026-04-27 08:10 22.96060 66.44798 38785 ft 523 kts 89°
2026-04-27 08:10 22.96031 66.52693 38785 ft 523 kts 89°
2026-04-27 08:11 22.95998 66.60590 38775 ft 523 kts 89°
2026-04-27 08:11 22.95961 66.68494 38772 ft 523 kts 89°
2026-04-27 08:12 22.95920 66.76399 38785 ft 524 kts 89°
2026-04-27 08:12 22.95875 66.84253 38785 ft 524 kts 89°
2026-04-27 08:13 22.95827 66.92160 38782 ft 524 kts 89°
2026-04-27 08:13 22.95789 67.00066 38782 ft 524 kts 89°
2026-04-27 08:14 22.95810 67.07983 38771 ft 524 kts 88°
2026-04-27 08:14 22.95839 67.15893 38781 ft 524 kts 88°
2026-04-27 08:15 22.95856 67.23797 38775 ft 524 kts 89°
2026-04-27 08:15 22.95862 67.31709 38780 ft 524 kts 89°
2026-04-27 08:16 22.95864 67.39572 38779 ft 524 kts 89°
2026-04-27 08:16 22.95863 67.47478 38780 ft 524 kts 89°
2026-04-27 08:17 22.95858 67.55401 38781 ft 524 kts 89°
2026-04-27 08:17 22.95850 67.63321 38780 ft 524 kts 89°
2026-04-27 08:18 22.95837 67.71232 38777 ft 524 kts 89°
2026-04-27 08:18 22.95821 67.79148 38781 ft 524 kts 89°
2026-04-27 08:19 22.95801 67.87060 38774 ft 524 kts 89°
2026-04-27 08:19 22.95800 67.94925 38776 ft 524 kts 89°
2026-04-27 08:20 22.95813 68.02839 38780 ft 524 kts 89°
2026-04-27 08:20 22.95820 68.10758 38783 ft 524 kts 89°
2026-04-27 08:21 22.95819 68.18672 38782 ft 524 kts 89°
2026-04-27 08:21 22.95814 68.26585 38780 ft 524 kts 89°
2026-04-27 08:22 22.95805 68.34489 38781 ft 524 kts 89°
2026-04-27 08:22 22.95612 68.42402 38781 ft 524 kts 92°
2026-04-27 08:23 22.95140 68.50254 38785 ft 525 kts 93°
2026-04-27 08:23 22.94636 68.58156 38784 ft 525 kts 93°
2026-04-27 08:24 22.94157 68.66062 38784 ft 525 kts 93°
2026-04-27 08:24 22.93692 68.73968 38784 ft 525 kts 93°
2026-04-27 08:25 22.93224 68.81882 38783 ft 525 kts 93°
2026-04-27 08:25 22.92751 68.89785 38781 ft 525 kts 93°
2026-04-27 08:26 22.92274 68.97657 38780 ft 526 kts 93°
2026-04-27 08:26 22.91790 69.05580 38781 ft 526 kts 93°
2026-04-27 08:27 22.91304 69.13490 38782 ft 526 kts 93°
2026-04-27 08:27 22.90811 69.21428 38781 ft 527 kts 93°
2026-04-27 08:28 22.90315 69.29361 38780 ft 527 kts 93°
2026-04-27 08:28 22.89818 69.37245 38783 ft 527 kts 94°
2026-04-27 08:29 22.89313 69.45199 38782 ft 528 kts 94°
2026-04-27 08:29 22.88805 69.53143 38784 ft 528 kts 94°
2026-04-27 08:30 22.88292 69.61091 38781 ft 528 kts 94°
2026-04-27 08:30 22.87776 69.69036 38777 ft 529 kts 94°
2026-04-27 08:31 22.87286 69.76992 38779 ft 529 kts 93°
2026-04-27 08:31 22.86834 69.84953 38783 ft 529 kts 93°
2026-04-27 08:32 22.86380 69.92858 38785 ft 529 kts 93°
2026-04-27 08:32 22.85911 70.00829 38780 ft 529 kts 94°
2026-04-27 08:33 22.85435 70.08809 38786 ft 530 kts 94°
2026-04-27 08:33 22.84955 70.16780 38788 ft 530 kts 94°
2026-04-27 08:34 22.84471 70.24757 38789 ft 530 kts 94°
2026-04-27 08:34 22.83984 70.32726 38790 ft 530 kts 94°
2026-04-27 08:35 22.83491 70.40718 38792 ft 531 kts 94°
2026-04-27 08:35 22.82995 70.48709 38787 ft 531 kts 94°
2026-04-27 08:36 22.82497 70.56655 38791 ft 532 kts 94°
2026-04-27 08:36 22.81992 70.64664 38788 ft 532 kts 94°
2026-04-27 08:37 22.81482 70.72677 38789 ft 532 kts 94°
2026-04-27 08:37 22.81421 70.80669 38778 ft 531 kts 80°
2026-04-27 08:38 22.83666 70.88248 38784 ft 528 kts 60°
2026-04-27 08:38 22.87631 70.94918 38779 ft 526 kts 54°
2026-04-27 08:39 22.91767 71.01483 38775 ft 527 kts 54°
2026-04-27 08:39 22.95829 71.08055 38770 ft 529 kts 54°
2026-04-27 08:40 22.99882 71.14737 38766 ft 530 kts 55°
2026-04-27 08:40 23.03923 71.21441 38757 ft 530 kts 55°
2026-04-27 08:41 23.07964 71.28150 38753 ft 530 kts 55°
2026-04-27 08:41 23.11975 71.34806 38753 ft 530 kts 55°
2026-04-27 08:42 23.16020 71.41524 38744 ft 529 kts 55°
2026-04-27 08:42 23.19370 71.47096 38748 ft 529 kts 55°
2026-04-27 08:43 23.23395 71.53799 38744 ft 528 kts 55°
2026-04-27 08:43 23.27416 71.60505 38748 ft 528 kts 55°
2026-04-27 08:44 23.31426 71.67200 38741 ft 528 kts 55°
2026-04-27 08:44 23.35410 71.73862 38743 ft 528 kts 55°
2026-04-27 08:45 23.39423 71.80579 38728 ft 528 kts 55°
2026-04-27 08:45 23.43426 71.87289 38737 ft 528 kts 55°
2026-04-27 08:46 23.47429 71.94008 38725 ft 528 kts 55°
2026-04-27 08:46 23.51402 72.00686 38725 ft 528 kts 55°
2026-04-27 08:47 23.55404 72.07423 38722 ft 528 kts 55°
2026-04-27 08:47 23.59393 72.14144 38721 ft 528 kts 55°
2026-04-27 08:48 23.63381 72.20875 38721 ft 528 kts 55°
2026-04-27 08:48 23.67368 72.27611 38719 ft 528 kts 55°
2026-04-27 08:49 23.71331 72.34317 38725 ft 528 kts 55°
2026-04-27 08:49 23.75314 72.41065 38727 ft 528 kts 55°
2026-04-27 08:50 23.79292 72.47814 38732 ft 528 kts 55°
2026-04-27 08:50 23.83267 72.54568 38730 ft 528 kts 55°
2026-04-27 08:51 23.87242 72.61329 38730 ft 528 kts 55°
2026-04-27 08:51 23.91182 72.68042 38734 ft 528 kts 55°
2026-04-27 08:52 23.95149 72.74809 38733 ft 528 kts 55°
2026-04-27 08:52 23.99112 72.81577 38747 ft 528 kts 55°
2026-04-27 08:53 24.03067 72.88343 38740 ft 527 kts 55°
2026-04-27 08:53 24.06991 72.95063 38749 ft 527 kts 55°
2026-04-27 08:54 24.10941 73.01840 38749 ft 527 kts 55°
2026-04-27 08:54 24.14881 73.08606 38748 ft 527 kts 55°
2026-04-27 08:55 24.18819 73.15378 38756 ft 527 kts 55°
2026-04-27 08:55 24.22751 73.22151 38759 ft 527 kts 55°
2026-04-27 08:56 24.26674 73.28916 38767 ft 526 kts 55°
2026-04-27 08:56 24.30597 73.35691 38766 ft 526 kts 55°
2026-04-27 08:57 24.36474 73.45860 38774 ft 526 kts 55°
2026-04-27 08:58 24.40361 73.52596 38773 ft 525 kts 55°
2026-04-27 08:58 24.44271 73.59381 38776 ft 525 kts 55°
2026-04-27 08:59 24.48174 73.66164 38782 ft 525 kts 56°
2026-04-27 08:59 24.52075 73.72954 38791 ft 525 kts 56°
2026-04-27 09:00 24.55968 73.79740 38804 ft 525 kts 56°
2026-04-27 09:00 24.60042 73.86381 38799 ft 522 kts 47°
2026-04-27 09:01 24.65263 73.91770 38809 ft 516 kts 33°
2026-04-27 09:01 24.71350 73.95858 38807 ft 512 kts 26°
2026-04-27 09:02 24.77581 73.99696 38790 ft 512 kts 26°
2026-04-27 09:02 24.83793 74.03572 38768 ft 512 kts 27°
2026-04-27 09:03 24.89971 74.07493 38752 ft 512 kts 27°
2026-04-27 09:03 24.96096 74.11407 38745 ft 512 kts 27°
2026-04-27 09:04 25.02259 74.15349 38755 ft 511 kts 27°
2026-04-27 09:04 25.08422 74.19291 38736 ft 511 kts 27°
2026-04-27 09:05 25.14564 74.23224 38739 ft 510 kts 27°
2026-04-27 09:05 25.20702 74.27157 38736 ft 509 kts 27°
2026-04-27 09:06 25.26828 74.31088 38731 ft 508 kts 27°
2026-04-27 09:06 25.32909 74.34996 38731 ft 508 kts 27°
2026-04-27 09:07 25.39016 74.38923 38731 ft 507 kts 27°
2026-04-27 09:07 25.45120 74.42854 38730 ft 507 kts 27°
2026-04-27 09:08 25.51226 74.46791 38727 ft 507 kts 27°
2026-04-27 09:08 25.57277 74.50697 38725 ft 507 kts 27°
2026-04-27 09:09 25.63366 74.54632 38721 ft 506 kts 27°
2026-04-27 09:09 25.69456 74.58573 38721 ft 506 kts 27°
2026-04-27 09:10 25.75538 74.62513 38717 ft 506 kts 27°
2026-04-27 09:10 25.81620 74.66458 38716 ft 506 kts 27°
2026-04-27 09:11 25.87696 74.70404 38720 ft 505 kts 27°
2026-04-27 09:11 25.93763 74.74348 38720 ft 505 kts 27°
2026-04-27 09:12 25.99798 74.78276 38718 ft 505 kts 27°
2026-04-27 09:12 26.05862 74.82229 38717 ft 504 kts 27°
2026-04-27 09:13 26.11922 74.86183 38722 ft 504 kts 27°
2026-04-27 09:13 26.17965 74.90132 38722 ft 503 kts 27°
2026-04-27 09:14 26.24004 74.94082 38723 ft 503 kts 27°
2026-04-27 09:14 26.29996 74.98006 38726 ft 502 kts 27°
2026-04-27 09:15 26.36018 75.01956 38727 ft 502 kts 28°
2026-04-27 09:15 26.42032 75.05905 38731 ft 502 kts 27°
2026-04-27 09:16 26.48058 75.09857 38719 ft 502 kts 27°
2026-04-27 09:16 26.54104 75.13808 38723 ft 503 kts 27°
2026-04-27 09:17 26.60166 75.17774 38722 ft 504 kts 28°
2026-04-27 09:17 26.66183 75.21719 38720 ft 505 kts 28°
2026-04-27 09:18 26.72261 75.25711 38709 ft 506 kts 28°
2026-04-27 09:18 26.78318 75.29694 38725 ft 507 kts 28°
2026-04-27 09:19 26.84396 75.33696 38730 ft 507 kts 28°
2026-04-27 09:19 26.90495 75.37717 38718 ft 508 kts 28°
2026-04-27 09:20 26.96592 75.41741 38735 ft 508 kts 27°
2026-04-27 09:20 27.02689 75.45770 38738 ft 509 kts 27°
2026-04-27 09:21 27.08761 75.49788 38728 ft 509 kts 28°
2026-04-27 09:21 27.14880 75.53843 38735 ft 510 kts 28°
2026-04-27 09:22 27.20964 75.57879 38727 ft 511 kts 28°
2026-04-27 09:22 27.27090 75.61948 38730 ft 512 kts 28°
2026-04-27 09:23 27.33232 75.66034 38730 ft 513 kts 28°
2026-04-27 09:23 27.39370 75.70122 38728 ft 513 kts 28°
2026-04-27 09:24 27.45481 75.74198 38728 ft 514 kts 28°
2026-04-27 09:24 27.51635 75.78309 38723 ft 514 kts 28°
2026-04-27 09:25 27.57754 75.82402 38690 ft 502 kts 28°
2026-04-27 09:25 27.60665 75.84513 38419 ft 494 kts 34°
2026-04-27 09:25 27.63272 75.87007 37578 ft 497 kts 42°
2026-04-27 09:25 27.65653 75.89922 36451 ft 506 kts 49°
2026-04-27 09:26 27.67685 75.93206 35307 ft 515 kts 56°
2026-04-27 09:26 27.69574 75.96676 34175 ft 522 kts 57°
2026-04-27 09:26 27.71441 76.00207 33031 ft 526 kts 58°
2026-04-27 09:26 27.73322 76.03780 31864 ft 529 kts 58°
2026-04-27 09:27 27.75189 76.07300 30713 ft 531 kts 57°
2026-04-27 09:27 27.77100 76.10865 29777 ft 529 kts 57°
2026-04-27 09:27 27.79003 76.14388 28974 ft 521 kts 57°
2026-04-27 09:27 27.80883 76.17850 28258 ft 512 kts 57°
2026-04-27 09:28 27.82737 76.21258 27547 ft 505 kts 57°
2026-04-27 09:28 27.84568 76.24624 26827 ft 499 kts 57°
2026-04-27 09:28 27.86379 76.27955 26095 ft 495 kts 57°
2026-04-27 09:28 27.88167 76.31249 25407 ft 490 kts 57°
2026-04-27 09:29 27.89922 76.34486 24746 ft 485 kts 57°
2026-04-27 09:29 27.91675 76.37724 24093 ft 481 kts 57°
2026-04-27 09:29 27.93411 76.40933 23470 ft 477 kts 57°
2026-04-27 09:29 27.95138 76.44130 22750 ft 472 kts 57°
2026-04-27 09:30 27.96840 76.47282 22062 ft 468 kts 57°
2026-04-27 09:30 27.98530 76.50414 21407 ft 462 kts 57°
2026-04-27 09:30 28.00193 76.53497 20779 ft 457 kts 57°
2026-04-27 09:30 28.01842 76.56557 20141 ft 453 kts 57°
2026-04-27 09:31 28.03477 76.59594 19542 ft 449 kts 57°
2026-04-27 09:31 28.04548 76.61584 19132 ft 446 kts 57°
2026-04-27 09:31 28.06155 76.64572 18553 ft 442 kts 57°
2026-04-27 09:31 28.07748 76.67536 17986 ft 438 kts 57°
2026-04-27 09:32 28.09325 76.70473 17366 ft 434 kts 57°
2026-04-27 09:32 28.10889 76.73386 16752 ft 430 kts 57°
2026-04-27 09:32 28.12434 76.76267 16176 ft 426 kts 57°
2026-04-27 09:32 28.13965 76.79124 15598 ft 422 kts 57°
2026-04-27 09:33 28.15482 76.81958 15030 ft 418 kts 57°
2026-04-27 09:33 28.16982 76.84759 14497 ft 414 kts 57°
2026-04-27 09:33 28.18471 76.87541 13973 ft 410 kts 56°
2026-04-27 09:33 28.19922 76.90258 13474 ft 407 kts 56°
2026-04-27 09:34 28.21380 76.92988 12903 ft 403 kts 56°
2026-04-27 09:34 28.22794 76.95637 12786 ft 388 kts 56°
2026-04-27 09:34 28.24166 76.98213 12686 ft 374 kts 56°
2026-04-27 09:34 28.25348 77.00438 12482 ft 342 kts 56°
2026-04-27 09:35 28.26532 77.02669 12145 ft 318 kts 55°
2026-04-27 09:35 28.27650 77.04767 11611 ft 304 kts 55°
2026-04-27 09:35 28.28732 77.06795 10968 ft 298 kts 55°
2026-04-27 09:35 28.29788 77.08772 10250 ft 295 kts 55°
2026-04-27 09:36 28.30849 77.10763 9530 ft 294 kts 54°
2026-04-27 09:36 28.31901 77.12737 8947 ft 291 kts 54°
2026-04-27 09:36 28.32945 77.14697 8641 ft 290 kts 55°
2026-04-27 09:36 28.33990 77.16664 8340 ft 289 kts 55°
2026-04-27 09:37 28.35009 77.18586 8201 ft 281 kts 54°
2026-04-27 09:37 28.36002 77.20460 8082 ft 272 kts 55°
2026-04-27 09:37 28.36965 77.22276 7974 ft 265 kts 54°
2026-04-27 09:37 28.37904 77.24042 7830 ft 258 kts 54°
2026-04-27 09:38 28.38826 77.25783 7583 ft 256 kts 55°
2026-04-27 09:38 28.39737 77.27499 7356 ft 253 kts 54°
2026-04-27 09:38 28.40715 77.29138 7053 ft 243 kts 37°
2026-04-27 09:38 28.42108 77.30032 6763 ft 228 kts 15°
2026-04-27 09:39 28.43600 77.30620 6507 ft 226 kts 14°
2026-04-27 09:39 28.45087 77.31218 6204 ft 228 kts 14°
2026-04-27 09:39 28.46567 77.31813 5953 ft 226 kts 15°
2026-04-27 09:39 28.48058 77.32414 5691 ft 225 kts 14°
2026-04-27 09:40 28.49542 77.33010 5384 ft 226 kts 14°
2026-04-27 09:40 28.51029 77.33607 5097 ft 229 kts 15°
2026-04-27 09:40 28.52529 77.34211 4878 ft 227 kts 15°
2026-04-27 09:40 28.53981 77.34735 4867 ft 212 kts
2026-04-27 09:41 28.55403 77.34472 4607 ft 208 kts 327°
2026-04-27 09:41 28.56343 77.33311 4370 ft 199 kts 291°
2026-04-27 09:41 28.56532 77.31780 4166 ft 196 kts 271°
2026-04-27 09:41 28.56561 77.30238 3897 ft 197 kts 272°
2026-04-27 09:42 28.56602 77.28685 3665 ft 196 kts 272°
2026-04-27 09:42 28.56637 77.27153 3432 ft 191 kts 272°
2026-04-27 09:42 28.56670 77.25634 3173 ft 192 kts 272°
2026-04-27 09:42 28.56705 77.24119 2928 ft 191 kts 272°
2026-04-27 09:43 28.56737 77.22610 2540 ft 189 kts 272°
2026-04-27 09:43 28.56772 77.21124 2314 ft 187 kts 272°
2026-04-27 09:43 28.56807 77.19689 2122 ft 176 kts 272°
2026-04-27 09:43 28.56837 77.18343 1876 ft 162 kts 272°
2026-04-27 09:44 28.56864 77.17137 1677 ft 148 kts 273°
2026-04-27 09:44 28.56888 77.16039 1509 ft 130 kts 273°
2026-04-27 09:44 28.56913 77.15026 1420 ft 136 kts 271°
2026-04-27 09:44 28.56938 77.13879 1211 ft 147 kts 271°
2026-04-27 09:45 28.56963 77.12750 996 ft 139 kts 274°
2026-04-27 09:45 28.56986 77.11665 818 ft 139 kts 274°
2026-04-27 09:45 28.57016 77.10573 752 ft 130 kts 272°
2026-04-27 09:45 28.57037 77.09735 755 ft 75 kts 271°
2026-04-27 09:46 28.57043 77.09421 752 ft 15 kts 273°
2026-04-27 09:46 28.57149 77.09344 751 ft 28 kts
2026-04-27 09:46 28.57239 77.09468 751 ft 23 kts 90°
2026-04-27 09:46 28.57235 77.09649 750 ft 23 kts 91°
2026-04-27 09:47 28.57231 77.09832 750 ft 23 kts 91°
2026-04-27 09:47 28.57242 77.10011 752 ft 23 kts 66°
2026-04-27 09:47 28.57319 77.10171 743 ft 23 kts 73°
2026-04-27 09:47 28.57384 77.10334 742 ft 23 kts 56°
2026-04-27 09:48 28.57474 77.10485 744 ft 23 kts 55°
2026-04-27 09:48 28.57504 77.10655 741 ft 23 kts 101°
2026-04-27 09:48 28.57452 77.10826 739 ft 23 kts 114°
2026-04-27 09:48 28.57386 77.10992 741 ft 23 kts 114°
2026-04-27 09:49 28.57306 77.11149 746 ft 23 kts 120°
2026-04-27 09:49 28.57257 77.11317 750 ft 21 kts 123°
2026-04-27 09:49 28.57224 77.11375 752 ft 0 kts 122°